Terminal Aerodrome Forecast
Issued by NWS Charleston, WV

Current Version | Previous Version | Text Only | Print | Product List | Glossary Off
Versions: 1 2 3 4 5 6 7 8 9 10 11 12 13 14 15 16 17 18 19 20 21 22 23 24 25 26 27 28

000
FTUS41 KRLX 202300
TAFEKN
TAF
KEKN 202333Z 2100/2124 VRB03KT P6SM FEW045
     FM210300 18005KT 4SM BR SCT250
     FM210500 20004KT 1/4SM FG VV001
     FM211100 24007KT 3SM BR VCTS BKN035CB
     FM211500 25009G15KT 6SM SHRA BR VCTS BKN030CB=

USA.gov is the U.S. government's official web portal to all federal, state and local government web resources and services.